Location: Newark
(30.1000°N, 109.4667°E)
Time: 08:27:34
(UTC+00:00)

Vanguard 2 Rocket - Pass Details

Date: 19 February 2020
Orbit: 554 x 3326 km, 32.9° (Epoch: 04 April)

Event Time Altitude Azimuth Distance (km) Brightness Sun altitude
Rises 14:52:43 0° 264° (W) 6,741 11.8 -55.8°
Reaches altitude 10° 14:57:47 10° 266° (W) 5,371 11.1 -56.8°
Enters shadow 15:05:32 33° 271° (W) 3,184 9.7 -58.2°
